FENGYUN 1C DEB

Satellite information

Favourite Embed

Satellite Type and Status

DEBRISIN ORBIT

Key statistics

Satellite FENGYUN 1C DEB at a glance.

Uptime

9715

Days in orbit

Revolutions

≈ 14.0

Per day

Orbit

SSO

Sun Synchronous Orbit

Inclination

99.4

Latest

Satellite identification and parameters

Extended collection of information and parameters for FENGYUN 1C DEB.

Object identification

Identified? True

Debris? True

Object name: FENGYUN 1C DEB

International designator: 1999-025AYR

Object number (NORAD): 30903

Object ID (CCSDS): 30903

Country: PEOPLES REPUBLIC OF CHINA (PRC)

Current information (Y/N): Y

RCS size: SMALL

Orbital parameters

Period: 103.034 minutes

Inclination: 99.3712 deg

SMA: 7280.27 km

Apoapsis: 972.649 km

Periapsis: 831.622 km

RAAN: 226.9134 deg

Eccentricy: 0.00968558

Argument of periapsis: 107.4967 deg

Mean anomaly: 253.6808 deg

Mean motion: 13.9759553 rev/day

Mean motion (dot): 0.00000628 rev/day2

B* drag term: 0.0004593066 1/REarth

Two-line elements (TLE)

Creation date: Dec. 8, 2025, 3:46 a.m.

Reference frame: TEME

Reference center: EARTH

Epoch: Dec. 7, 2025, 9:49 a.m. UTC

TLE line 0: 0 FENGYUN 1C DEB

TLE line 1: 1 30903U 99025AYR 25341.40956773 .00000628 00000-0 45931-3 0 9997

TLE line 2: 2 30903 99.3712 226.9134 0096856 107.4967 253.6808 13.97595530686305

Live tracking on map

Real-time ground track for satellite FENGYUN 1C DEB.

In-orbit conjunctions

A list of the most updated potential collisions computed for object FENGYUN 1C DEB.

Target Orbit TCA Probability of collision Miss distance Type
COSMOS 2369 LEO 2025-08-05 12:07:53 0.0008162818 402.0 (m) PAYLOAD
COSMOS 249 DEB LEO 2025-06-06 22:02:06 0.0001261984 227.0 (m) DEBRIS
COSMOS 755 LEO 2025-01-18 11:06:34 0.001000894 228.0 (m) PAYLOAD

Associated space launch

Chinese polar orbiting meteorological satellite

FENGYUN 1C DEB was lifted into orbit during the mission ‘Long March 4B | Feng Yun 1C’, on board a Long March 4B space rocket.

The launch took place on May 10, 1999, 1:33 a.m. from Launch Complex 7.

For more information about the launch, click the button.

Launch to space Long March 4B | Feng Yun 1C
Long March 4B | Feng Yun 1C

Agency: N/A

Status: Launch Successful

Launch date: May 10, 1999, 1:33 a.m. UTC

Rocket: Long March 4B

Launch pad: Launch Complex 7

Location: Taiyuan Satellite Launch Center, People's Republic of China

...

Latest news about this satellite

There are no fresh news available about this satellite. Check back as we update our databases every day.


Newsletter sign-up

Weekly statistics, charts and insights to help you stay on top of the space industry.